Location: Beetenbrück
(52.8113°N, 9.5946°E)
Time: 21:28:36
(UTC+00:00)

USA 229 DEB - Pass Details

Date: 14 April 2026
Orbit: 844 x 1364 km, 63.4° (Epoch: 10 January)

Event Time Altitude Azimuth Distance (km) Brightness Sun altitude
Rises 23:38:35 0° 309° (NW) 3,860 7.1 -27.4°
Reaches altitude 10° 23:41:09 10° 313° (NW) 2,975 6.5 -27.4°
Maximum altitude 23:48:18 64° 35° (NE) 1,332 4.3 -27.2°
Drops below altitude 10° 23:56:18 10° 116° (ESE) 3,319 6.1 -27.1°
Sets 23:59:19 0° 120° (ESE) 4,333 6.7 -27.0°
